Location: Newark
(48.1500°N, 2.9667°W)
Time: 21:04:28
(UTC+00:00)

Altair - Pass Details

Date: 29 January 2020
Orbit: 1502 x 1682 km, 47.2° (Epoch: 19 February)

Event Time Altitude Azimuth Distance (km) Brightness Sun altitude
Rises 12:16:58 0° 283° (WNW) 4,929 10.0 23.8°
Reaches altitude 10° 12:20:09 10° 282° (WNW) 3,946 9.6 23.8°
Maximum altitude 12:30:15 72° 201° (SSW) 1,751 8.6 23.8°
Drops below altitude 10° 12:40:12 10° 120° (ESE) 3,890 10.0 23.8°
Sets 12:43:19 0° 118° (ESE) 4,856 10.4 23.7°
